Weather History for KACK - November, 2011

Change the Weather History Date:

Monday, November 28, 2011

  Actual Average Record
Temperature  
Mean Temperature 56 °F -  
Max Temperature 59 °F 50 °F 60 °F (1979)
Min Temperature 52 °F 37 °F 19 °F (1974)
Degree Days  
Heating Degree Days 10    
Growing Degree Days 6 (Base 50)    
Moisture  
Dew Point 51 °F    
Average Humidity 88    
Maximum Humidity 97    
Minimum Humidity 72    
Precipitation  
Precipitation 0.00 in - - ()
Sea Level Pressure  
Sea Level Pressure 30.17 in    
Wind  
Wind Speed 12 mph (SSW)    
Max Wind Speed 17 mph    
Max Gust Speed 24 mph    
Visibility 10 miles    
Events      
Averages and records for this station are not official NWS values.
T = Trace of Precipitation, MM = Missing Value Source: NWS Daily Summary

Daily Weather History Graph

Daily Weather History Graph

Search for Another Location

Airport or City:

Trip Planner

Search our weather history database for the weather conditions in past years. The results will help you decide how hot, cold, wet, or windy it might be!

Date:

Astronomy

Nov. 28, 2011 Rise Set
Actual Time 6:42 AM EST 4:13 PM EST
Civil Twilight 6:12 AM EST 4:43 PM EST
Nautical Twilight 5:38 AM EST 5:17 PM EST
Astronomical Twilight 5:05 AM EST 5:50 PM EST
Moon 9:50 AM EST (11/28) 7:56 PM EST (11/28)
Length of Visible Light 10h 31m
Length of Day
9h 30m
Waxing Crescent, 15% of the Moon is Illuminated
Nov 28
Waxing Crescent
Dec 2
First Quarter
Dec 10
Full
Dec 17
Last Quarter
Dec 24
New

Hourly Weather History & Observations

Time (EST) Temp. Dew Point Humidity Pressure Visibility Wind Dir Wind Speed Gust Speed Precip Events Conditions
12:53 AM 55.0 °F 51.1 °F 86% 30.18 in 10.0 mi SSW 13.8 mph - N/A   Clear
1:53 AM 54.0 °F 52.0 °F 93% 30.18 in 10.0 mi SSW 12.7 mph - N/A   Clear
2:53 AM 54.0 °F 51.1 °F 90% 30.17 in 10.0 mi SSW 12.7 mph - N/A   Clear
3:53 AM 54.0 °F 51.1 °F 90% 30.17 in 10.0 mi SSW 12.7 mph - N/A   Clear
4:53 AM 54.0 °F 51.1 °F 90% 30.17 in 10.0 mi SSW 15.0 mph - N/A   Clear
5:53 AM 54.0 °F 51.1 °F 90% 30.18 in 10.0 mi SSW 12.7 mph - N/A   Clear
6:53 AM 54.0 °F 52.0 °F 93% 30.18 in 9.0 mi SSW 15.0 mph - N/A   Clear
7:53 AM 55.0 °F 52.0 °F 89% 30.19 in 9.0 mi SSW 13.8 mph - N/A   Clear
8:53 AM 57.0 °F 53.1 °F 87% 30.19 in 10.0 mi SSW 15.0 mph - N/A   Clear
9:53 AM 59.0 °F 52.0 °F 78% 30.20 in 10.0 mi SW 17.3 mph 24.2 mph N/A   Clear
10:53 AM 59.0 °F 50.0 °F 72% 30.19 in 10.0 mi SW 16.1 mph - N/A   Partly Cloudy
11:53 AM 59.0 °F 52.0 °F 78% 30.17 in 10.0 mi SSW 13.8 mph - N/A   Partly Cloudy
12:53 PM 57.9 °F 51.1 °F 78% 30.17 in 10.0 mi SSW 13.8 mph - N/A   Clear
1:53 PM 57.9 °F 51.1 °F 78% 30.15 in 10.0 mi SSW 16.1 mph - N/A   Clear
2:53 PM 57.0 °F 51.1 °F 81% 30.14 in 10.0 mi SSW 11.5 mph - N/A   Clear
3:53 PM 55.0 °F 51.1 °F 86% 30.15 in 10.0 mi SSW 9.2 mph - N/A   Clear
4:53 PM 54.0 °F 51.1 °F 90% 30.16 in 10.0 mi SSW 8.1 mph - N/A   Clear
5:53 PM 53.1 °F 51.1 °F 93% 30.15 in 10.0 mi SSW 8.1 mph - N/A   Clear
6:53 PM 53.1 °F 51.1 °F 93% 30.16 in 10.0 mi SSW 5.8 mph - N/A   Clear
7:53 PM 52.0 °F 51.1 °F 97% 30.17 in 10.0 mi SW 3.5 mph - N/A   Clear
8:53 PM 52.0 °F 51.1 °F 97% 30.17 in 10.0 mi SSW 3.5 mph - N/A   Clear
9:53 PM 54.0 °F 52.0 °F 93% 30.17 in 10.0 mi SSW 8.1 mph - N/A   Scattered Clouds
10:53 PM 55.0 °F 53.1 °F 93% 30.17 in 10.0 mi SSW 6.9 mph - N/A   Mostly Cloudy
11:53 PM 54.0 °F 52.0 °F 93% 30.16 in 10.0 mi SSW 4.6 mph - N/A   Overcast